Weather History for New Philadelphia, OH

Change the Weather History Date:

Wednesday, March 26, 2014

  Actual Average Record
Temperature  
Mean Temperature 24 °F 44 °F  
Max Temperature 31 °F 55 °F 77 °F (1986)
Min Temperature 17 °F 32 °F 5 °F (1974)
Degree Days  
Heating Degree Days 41 21  
Month to date heating degree days 844 677  
Since 1 July heating degree days 5477 4884  
Cooling Degree Days 0 0  
Month to date cooling degree days 0 0  
Year to date cooling degree days 0 0  
Moisture  
Dew Point 10 °F    
Average Humidity 54    
Maximum Humidity 68    
Minimum Humidity 39    
Precipitation  
Precipitation T in 0.11 in 0.72 in (2002)
Month to date precipitation 1.23 2.53  
Year to date precipitation 5.02 7.49  
Sea Level Pressure  
Sea Level Pressure 30.26 in    
Wind  
Wind Speed 6 mph (NW)    
Max Wind Speed 17 mph    
Max Gust Speed 26 mph    
Visibility 8 miles    
Events Snow    
T = Trace of Precipitation, MM = Missing Value Source: NWS Daily Summary

Daily Weather History Graph

Daily Weather History Graph

Search for Another Location

Airport:

Trip Planner

Search our weather history database for the weather conditions in past years. The results will help you decide how hot, cold, wet, or windy it might be!

Date:

Astronomy

Mar. 26, 2014 Rise Set
Actual Time 7:19 AM EDT 7:44 PM EDT
Civil Twilight 6:51 AM EDT 8:11 PM EDT
Nautical Twilight 6:19 AM EDT 8:43 PM EDT
Astronomical Twilight 5:46 AM EDT 9:16 PM EDT
Moon 4:27 AM EDT (3/26) 3:20 PM EDT (3/26)
Length of Visible Light 13h 19m
Length of Day
12h 24m
Waning Crescent, 22% of the Moon is Illuminated
Mar 26
Waning Crescent
Mar 30
New
Apr 7
First Quarter
Apr 15
Full
Apr 22
Last Quarter

Hourly Weather History & Observations

Time (EDT) Temp. Windchill Dew Point Humidity Pressure Visibility Wind Dir Wind Speed Gust Speed Precip Events Conditions
12:53 AM 24.1 °F 14.4 °F 12.9 °F 62% 30.12 in 10.0 mi NW 9.2 mph 19.6 mph N/A   Overcast
1:53 AM 21.9 °F 11.0 °F 12.0 °F 66% 30.14 in 10.0 mi NW 10.4 mph 23.0 mph N/A   Partly Cloudy
2:53 AM 21.0 °F 8.6 °F 10.9 °F 65% 30.16 in 10.0 mi NW 12.7 mph 18.4 mph N/A   Clear
3:53 AM 19.9 °F 9.3 °F 10.0 °F 65% 30.17 in 10.0 mi WNW 9.2 mph - N/A   Unknown
4:18 AM 19.9 °F 7.9 °F 9.0 °F 62% 30.14 in 9.0 mi WNW 11.5 mph - N/A   Overcast
4:53 AM 19.0 °F 8.2 °F 12.0 °F 74% 30.19 in 1.8 mi WNW 9.2 mph - 0.00 in Snow Light Snow
5:08 AM 19.0 °F 8.2 °F 12.0 °F 74% 30.16 in 2.5 mi NW 9.2 mph - 0.00 in Snow Light Snow
5:31 AM 18.0 °F 9.8 °F 12.0 °F 78% 30.17 in 5.0 mi NW 5.8 mph - 0.00 in Snow Light Snow
5:53 AM 18.0 °F 9.8 °F 12.0 °F 78% 30.22 in 9.0 mi NW 5.8 mph - 0.00 in   Overcast
6:12 AM 18.0 °F 9.8 °F 12.0 °F 78% 30.19 in 6.0 mi NNW 5.8 mph - N/A   Haze
6:25 AM 18.0 °F 9.8 °F 12.0 °F 78% 30.20 in 3.0 mi NNW 5.8 mph - 0.00 in Snow Light Snow
6:35 AM 18.0 °F 11.1 °F 10.9 °F 74% 30.20 in 5.0 mi NNW 4.6 mph - 0.00 in Snow Light Snow
6:53 AM 18.0 °F 9.8 °F 12.0 °F 78% 30.26 in 4.0 mi NNW 5.8 mph - 0.00 in Snow Light Snow
7:01 AM 18.0 °F 9.8 °F 10.9 °F 74% 30.23 in 3.0 mi NW 5.8 mph - 0.00 in Snow Light Snow
7:08 AM 18.0 °F 8.7 °F 12.0 °F 78% 30.23 in 2.5 mi NNW 6.9 mph - 0.00 in Snow Light Snow
7:17 AM 18.0 °F 7.7 °F 10.9 °F 74% 30.24 in 3.0 mi NW 8.1 mph - 0.00 in Snow Light Snow
7:28 AM 18.0 °F 8.7 °F 10.0 °F 71% 30.25 in 6.0 mi NNW 6.9 mph - 0.00 in   Haze
7:53 AM 17.1 °F 7.6 °F 9.0 °F 71% 30.31 in 10.0 mi NNW 6.9 mph - 0.00 in   Overcast
8:53 AM 18.0 °F 11.1 °F 9.0 °F 68% 30.33 in 10.0 mi Variable 4.6 mph - N/A   Clear
9:53 AM 19.9 °F 9.3 °F 7.0 °F 57% 30.35 in 10.0 mi NW 9.2 mph - N/A   Partly Cloudy
10:53 AM 21.0 °F 13.4 °F 7.0 °F 55% 30.37 in 10.0 mi WNW 5.8 mph - N/A   Scattered Clouds
11:53 AM 21.9 °F 11.0 °F 5.0 °F 48% 30.38 in 10.0 mi WNW 10.4 mph - N/A   Mostly Cloudy
12:53 PM 24.1 °F 13.7 °F 7.0 °F 48% 30.38 in 10.0 mi WNW 10.4 mph 17.3 mph N/A   Mostly Cloudy
1:53 PM 24.1 °F 13.7 °F 8.1 °F 51% 30.37 in 10.0 mi WNW 10.4 mph - N/A   Mostly Cloudy
2:53 PM 27.0 °F 18.7 °F 9.0 °F 47% 30.35 in 10.0 mi NW 8.1 mph - N/A   Mostly Cloudy
3:53 PM 27.0 °F 18.0 °F 7.0 °F 43% 30.33 in 10.0 mi WNW 9.2 mph - N/A   Partly Cloudy
4:53 PM 30.0 °F 26.5 °F 10.0 °F 43% 30.32 in 10.0 mi Variable 3.5 mph - N/A   Mostly Cloudy
5:53 PM 30.9 °F 26.2 °F 10.0 °F 42% 30.31 in 10.0 mi Variable 4.6 mph - N/A   Clear
6:53 PM 30.0 °F 24.1 °F 9.0 °F 41% 30.32 in 10.0 mi Variable 5.8 mph - N/A   Clear
7:53 PM 28.9 °F - 9.0 °F 43% 30.31 in 10.0 mi Calm Calm - N/A   Clear
8:53 PM 26.1 °F - 10.9 °F 53% 30.31 in 10.0 mi Calm Calm - N/A   Clear
9:53 PM 23.0 °F - 14.0 °F 68% 30.32 in 10.0 mi Calm Calm - N/A   Clear
10:53 PM 21.9 °F - 12.9 °F 68% 30.33 in 10.0 mi Calm Calm - N/A   Clear
11:53 PM 21.0 °F 16.2 °F 12.9 °F 71% 30.34 in 10.0 mi ESE 3.5 mph - N/A   Clear